Theta_e
299 301 303 301 301 301 300 300 296 298 300 302 306 309 311 309 306 304 303 306 307 308 308 310 310 310 311 308 312 316 316 314 312 311 308 307 309 309 309 308 309 307 306 307
300 303 302 300 302 302 302 302 301 301 300 307 310 312 311 309 307 305 304 306 307 309 309 310 311 309 310 309 312 316 316 315 316 313 310 307 308 308 308 307 305 305 304 304
293 301 299 294 300 301 303 303 302 297 302 308 307 309 309 309 309 307 306 306 307 309 310 311 312 311 310 310 312 315 317 319 318 315 310 308 308 308 305 303 303 302 301 301
293 297 287 299 306 306 303 304 304 304 305 307 309 311 311 312 310 309 309 307 308 309 310 312 312 312 313 312 313 315 318 319 319 315 311 309 308 307 306 302 301 300 300 300
291 287 295 299 304 303 301 300 307 305 306 308 310 313 311 314 314 312 311 310 309 311 311 312 312 313 313 312 314 316 318 318 320 317 314 310 308 307 307 304 302 301 301 300
288 286 285 296 304 310 307 295 306 307 306 306 307 303 306 314 316 314 313 312 310 310 311 312 312 313 313 313 313 315 317 319 321 319 316 312 309 308 309 307 306 304 301 300
287 284 293 302 306 309 294 296 310 309 308 306 305 307 310 313 314 316 314 313 312 310 310 311 313 313 312 314 313 317 319 320 320 320 318 316 313 310 310 310 309 306 303 301
289 286 288 308 305 299 303 306 310 311 311 310 310 311 312 312 313 315 315 314 311 310 311 311 313 313 313 313 316 318 320 320 320 320 321 319 316 314 311 311 309 307 306 304
294 294 303 308 307 309 308 307 311 310 313 312 312 312 312 311 312 314 316 315 312 311 310 311 312 313 312 313 316 318 318 318 319 320 321 320 318 316 314 312 311 309 308 308
298 301 302 306 307 310 312 311 313 313 313 314 312 311 311 312 310 314 317 315 313 312 310 310 312 313 313 314 315 316 316 314 317 318 319 320 321 320 318 315 313 311 310 310
298 301 304 305 307 311 311 313 314 316 316 315 315 313 312 312 313 313 316 317 314 312 311 311 313 313 313 313 315 315 315 315 312 316 317 319 321 321 320 320 317 315 314 313
296 302 302 305 309 312 313 313 314 314 315 317 316 316 313 313 316 313 316 317 314 313 313 312 315 314 314 314 316 314 313 313 314 313 315 318 320 320 307 307 304 302 304 312
304 307 307 311 313 314 313 314 315 316 315 314 316 317 317 313 313 314 313 317 315 314 314 314 315 316 316 316 316 315 314 314 314 312 317 317 319 319 318 317 301 301 299 297
309 307 305 310 308 313 314 313 314 317 318 319 318 318 317 315 315 316 314 314 317 317 316 316 315 316 318 319 317 317 316 307 318 318 318 319 320 320 320 319 318 321 297 297
309 307 307 311 311 311 310 311 310 313 316 318 318 315 316 317 314 316 317 318 316 317 318 317 317 317 320 321 319 317 317 316 317 318 319 320 321 322 322 320 318 315 300 295
308 308 308 308 311 311 309 307 308 311 314 314 315 315 316 317 315 318 319 318 317 316 317 318 318 318 321 321 320 319 320 309 311 316 313 313 313 315 314 314 314 316 310 306
304 303 303 303 307 308 307 310 312 312 312 312 313 315 315 318 317 316 317 318 316 316 317 318 317 321 321 321 320 320 315 312 303 317 316 315 316 316 314 312 312 312 309 303
307 306 304 303 307 307 308 309 310 311 311 314 316 316 315 316 316 315 316 317 317 317 317 317 321 323 321 319 319 318 317 316 317 316 315 314 313 312 310 308 307 304 300 297
306 306 306 305 306 305 305 306 307 307 307 312 314 314 315 316 317 316 315 315 316 315 315 317 306 316 318 310 317 320 319 317 315 315 314 307 313 312 309 308 306 303 302 300
303 304 306 306 306 305 304 306 307 306 307 308 308 309 309 314 316 313 311 309 309 313 315 317 317 317 316 310 309 318 318 317 316 315 315 312 310 307 305 299 302 301 299 298
304 303 303 304 304 306 306 306 307 307 308 310 314 313 313 314 314 311 310 307 306 305 310 307 314 313 312 310 316 317 315 314 312 311 309 308 307 306 304 303 302 301 299 299
303 307 306 306 305 305 305 304 306 308 308 314 317 316 310 307 305 304 303 303 303 294 302 306 309 300 305 302 312 312 311 310 307 305 304 303 302 301 300 299 298 298 297 297
308 307 306 305 304 306 309 306 306 308 308 311 311 310 308 307 307 305 301 301 301 295 303 300 292 292 294 308 306 305 303 303 302 300 300 300 300 299 298 297 297 297 296 296
307 307 306 305 302 300 299 301 302 302 302 302 302 302 302 300 299 302 298 291 289 296 298 297 293 291 297 303 303 302 301 300 299 299 298 295 299 299 298 298 297 296 294 294
303 302 304 302 299 298 297 299 298 298 299 299 299 300 301 302 300 299 299 297 291 297 299 290 291 292 303 303 302 301 300 299 299 298 299 299 299 298 298 298 297 296 296 295
299 298 299 300 298 298 298 298 297 296 297 297 297 299 299 300 299 299 299 297 299 295 300 301 302 301 301 300 300 299 300 300 301 300 299 299 298 298 297 297 297 296 295 295
299 296 298 300 300 297 297 296 298 298 298 298 298 297 298 299 298 298 295 299 299 300 300 301 301 299 301 302 301 301 302 301 299 300 299 299 298 298 297 297 297 297 296 296
Wind_Speed
18 14 16 9 14 16 19 17 10 8 7 10 11 17 15 11 12 13 14 16 17 15 12 11 9 7 9 7 8 9 9 8 8 7 6 5 5 6 7 7 6 7 8 6
3 11 10 5 8 14 20 18 14 9 10 10 14 2 5 13 18 19 19 19 19 17 15 15 13 9 10 8 9 10 10 9 7 7 7 6 6 7 7 7 7 7 7 7
6 14 10 2 10 14 18 11 16 12 13 7 9 7 13 14 21 24 22 20 21 21 18 16 15 11 12 10 8 10 10 9 9 7 7 6 6 7 7 7 6 7 6 7
6 8 8 5 8 14 14 5 7 4 9 9 18 15 13 13 21 22 22 22 20 19 18 17 15 12 12 11 12 11 11 11 10 10 8 7 7 7 6 5 6 5 5 6
9 3 1 3 7 10 10 12 16 12 10 5 8 6 8 15 17 22 23 21 21 20 20 17 17 14 14 14 14 12 13 12 12 11 10 8 8 8 6 6 5 5 5 7
4 8 10 6 5 7 7 10 6 10 8 4 7 12 11 16 17 16 20 20 18 19 18 18 18 16 15 17 16 15 14 14 13 12 12 11 9 9 5 5 6 5 6 7
3 3 5 4 8 7 11 6 8 10 7 5 6 9 8 10 9 15 19 21 18 18 21 23 20 18 18 17 19 18 16 15 14 13 14 13 11 6 7 6 6 6 7 6
4 4 5 9 4 12 11 4 7 5 8 7 5 5 6 8 9 16 17 15 16 19 20 19 20 19 19 20 19 18 17 16 15 14 12 9 13 10 7 8 8 7 7 5
9 8 8 17 9 10 8 7 7 6 6 8 8 5 6 10 11 14 22 18 19 20 20 17 20 22 22 20 18 18 17 18 16 15 14 12 12 10 7 9 8 8 7 7
5 7 10 17 5 6 6 7 6 3 2 2 2 7 7 10 7 11 17 17 17 18 19 18 20 22 26 19 18 19 19 15 16 16 14 12 10 10 10 10 9 8 8 10
6 3 5 3 3 5 8 6 4 7 7 7 5 6 5 4 7 6 12 15 18 21 19 22 22 24 21 19 19 19 18 16 12 13 15 14 13 12 12 13 15 13 13 12
7 5 5 4 1 4 11 10 10 7 5 6 5 8 4 4 6 5 9 13 15 19 21 21 21 22 20 19 20 20 17 14 13 9 10 12 12 11 14 12 19 19 19 14
6 4 8 10 2 6 8 4 8 6 6 4 5 8 5 6 11 12 9 13 14 15 17 18 20 19 19 19 20 19 17 15 12 10 9 11 11 12 13 13 9 16 14 9
8 7 7 3 6 7 9 7 7 5 1 5 7 12 10 6 7 10 9 9 11 15 19 17 16 19 19 19 19 19 17 16 12 10 10 9 11 12 11 12 12 14 5 3
5 8 6 5 3 4 3 3 8 9 5 5 9 12 9 9 6 8 6 7 6 10 16 16 16 16 16 18 18 17 14 11 10 8 8 11 11 11 10 8 4 4 4 1
6 7 5 6 4 4 4 2 3 7 10 9 11 3 8 2 5 5 6 3 6 7 8 11 8 12 16 17 15 12 13 15 10 6 4 4 5 6 5 6 5 4 3 4
10 6 3 3 3 5 3 3 4 0 3 4 5 5 5 7 7 9 9 7 7 7 6 11 8 8 10 14 17 10 6 6 11 8 7 7 6 5 4 5 4 4 1 2
8 7 4 3 5 8 6 3 5 4 3 1 4 1 7 8 6 7 7 6 8 11 8 5 8 10 13 12 8 8 9 8 8 9 8 9 8 7 6 7 5 6 6 1
7 8 7 6 8 7 7 3 2 3 4 3 7 5 6 6 6 6 7 7 7 12 3 4 16 18 16 19 16 6 9 11 11 10 11 11 8 7 6 8 8 9 0 0
2 3 3 5 8 8 6 3 4 0 0 7 4 5 6 5 5 9 6 6 4 2 6 4 10 11 15 15 13 14 5 8 7 7 8 10 11 7 7 12 9 5 4 2
5 4 1 4 2 3 5 4 2 1 5 8 9 8 6 5 8 7 6 6 7 8 1 9 9 7 9 9 10 13 9 6 3 7 11 13 13 11 10 8 7 6 6 7
4 9 8 4 4 2 3 3 1 4 4 9 9 13 11 11 10 11 10 6 5 10 5 4 6 8 11 15 11 11 10 11 8 8 11 12 13 12 10 9 9 9 8 8
10 12 12 13 9 3 3 6 6 6 5 9 11 8 12 7 6 9 6 5 5 6 7 6 9 12 14 12 13 13 12 13 10 10 10 11 11 11 11 10 9 9 8 6
7 9 9 8 9 10 9 7 8 9 9 10 12 10 9 12 7 1 9 5 7 9 7 5 8 12 15 11 11 12 12 11 10 11 11 13 11 11 11 10 8 7 6 6
5 5 4 8 7 6 6 8 10 10 11 11 12 10 7 2 7 4 8 8 10 11 8 6 12 12 11 11 11 11 11 10 10 11 11 12 11 10 8 8 7 7 7 6
5 4 4 4 5 4 4 6 8 6 6 9 7 6 5 8 9 8 6 8 7 7 10 8 10 11 11 11 12 12 12 11 12 12 13 11 10 9 8 8 8 8 6 6
5 7 5 6 6 4 4 5 7 7 5 6 8 4 6 7 8 9 8 8 8 8 9 9 9 11 11 11 12 12 12 11 12 11 9 9 8 8 8 8 8 7 6 6
Wind_Direction
213 176 183 188 189 193 205 218 202 236 238 251 202 198 185 165 168 176 184 175 180 177 182 183 188 176 177 182 159 155 151 148 161 163 152 142 133 125 116 109 112 113 111 99
62 149 149 148 212 214 215 220 230 235 249 233 239 214 173 177 173 184 188 186 183 181 183 183 189 179 180 178 166 157 155 161 160 151 147 146 143 132 115 113 113 110 106 114
151 140 114 236 195 212 229 222 213 223 231 233 233 218 240 181 180 188 189 189 185 184 186 185 187 176 181 179 162 160 159 160 157 152 151 150 135 124 123 130 119 116 117 121
150 130 211 187 163 198 223 218 208 254 252 197 223 210 234 207 184 192 186 192 188 185 186 188 185 178 177 171 169 166 165 166 160 158 158 150 139 140 133 134 142 144 151 150
143 207 51 172 165 155 164 244 202 209 246 192 235 139 256 207 196 188 189 192 192 188 182 184 184 182 171 175 173 171 173 173 169 164 159 156 159 160 159 147 155 169 168 168
141 159 206 188 165 124 103 255 196 187 230 231 96 194 222 191 199 199 194 191 186 183 182 183 187 182 175 179 179 181 179 180 171 168 167 173 172 171 167 158 167 160 173 191
103 105 279 261 140 126 175 227 197 169 178 150 170 219 273 215 214 207 190 190 186 173 184 190 183 179 184 183 188 185 181 180 176 175 176 178 173 165 162 159 155 179 190 204
95 104 228 162 115 169 207 178 170 170 152 148 210 250 292 264 244 205 189 187 184 182 189 184 184 184 190 193 186 183 183 183 182 180 183 175 177 178 168 160 173 188 191 215
165 200 217 190 190 217 178 166 186 186 198 160 165 248 208 236 229 216 201 194 186 188 187 186 186 189 195 196 182 180 182 189 185 187 188 179 178 181 170 179 185 196 197 212
119 212 211 198 200 187 165 197 170 182 135 75 276 241 243 256 265 193 181 191 188 184 186 187 191 193 205 185 186 184 187 177 187 187 192 186 188 188 186 188 197 201 205 216
206 232 98 88 148 173 218 224 307 122 183 190 192 236 248 253 260 200 175 192 182 181 187 195 192 200 197 188 182 189 193 193 172 191 192 193 195 190 196 210 197 198 211 213
202 178 130 153 184 171 192 208 211 172 174 216 193 203 131 315 300 262 189 178 186 196 190 196 196 200 192 188 184 186 189 194 198 176 186 196 201 210 229 225 211 214 214 198
161 170 114 123 46 81 117 180 237 210 181 214 261 195 198 146 203 233 251 176 182 191 204 196 195 197 191 187 185 187 188 190 196 190 186 194 200 207 218 235 218 224 241 251
114 114 73 66 133 152 150 147 171 180 214 80 325 320 342 299 313 295 212 200 183 192 197 195 205 193 187 181 185 190 192 181 190 198 194 191 201 204 208 217 221 229 67 257
69 77 133 148 163 77 55 27 108 117 116 67 318 303 283 278 224 258 318 311 267 196 194 185 187 196 180 179 183 186 191 191 188 182 186 194 198 204 215 221 219 152 148 115
116 95 101 87 94 21 306 248 175 135 150 189 172 197 273 42 76 353 35 34 150 165 165 179 177 185 175 176 175 175 190 187 185 188 151 153 148 155 157 163 170 174 150 133
100 78 25 17 210 335 42 27 98 1 141 202 170 195 288 80 71 52 22 18 69 70 91 126 139 121 162 178 178 179 139 128 128 112 109 108 101 87 83 81 53 47 104 21
98 131 132 85 114 112 104 134 108 153 136 290 14 2 69 70 77 79 71 22 70 60 39 56 102 96 89 88 90 112 113 108 101 101 94 93 93 88 99 97 84 86 55 69
142 136 117 102 110 96 109 161 159 139 81 43 96 71 71 23 64 58 70 81 98 100 5 344 91 89 88 93 88 58 106 111 109 111 112 115 100 105 110 90 80 63 217 206
293 298 316 168 138 139 149 194 160 269 182 98 51 10 53 72 59 70 51 77 359 67 143 96 67 86 96 87 89 90 299 107 121 139 157 133 112 127 90 82 114 157 212 118
263 260 245 216 165 177 134 146 87 52 222 104 85 60 53 102 73 44 49 55 4 2 292 139 116 98 91 96 109 114 102 34 66 147 116 106 101 92 95 102 105 101 78 63
34 46 24 62 78 278 284 269 216 263 276 95 113 112 89 84 73 68 50 34 332 22 4 0 84 86 104 103 90 88 110 122 115 101 98 104 103 105 101 98 92 88 87 84
60 58 43 29 4 314 296 255 249 244 220 137 130 121 115 102 92 89 60 326 49 35 65 62 85 97 95 99 111 116 112 104 103 104 102 97 97 100 101 97 94 95 95 93
54 64 75 57 38 32 18 345 76 71 74 85 94 100 123 121 94 256 122 70 48 82 80 86 89 88 97 101 101 99 99 106 111 108 99 92 99 101 98 101 96 84 84 86
46 38 14 96 80 46 25 48 65 69 85 82 82 85 92 38 120 143 107 124 130 114 99 57 79 80 92 99 103 112 115 111 108 103 103 101 100 99 98 96 101 101 92 87
62 57 53 53 83 67 51 63 67 53 63 80 70 72 87 96 97 92 90 96 94 100 104 102 101 104 107 108 106 103 102 99 99 100 105 106 109 111 112 111 106 95 92 88
57 65 69 79 53 47 64 71 90 84 77 93 91 60 74 83 86 96 92 89 93 98 98 100 100 102 105 102 97 97 101 104 107 110 108 110 110 111 108 103 102 99 91 91